Regional Weather Roundup
Issued by NWS Wakefield, VA

Home | Current Version | Previous Version | Graphics & Text | Print | Product List | Glossary On
Versions: 1 2 3 4 5 6 7 8 9 10 11 12 13 14 15 16 17 18 19 20 21 22 23 24 25 26 27
000
ASUS41 KAKQ 250215
RWRAKQ

REGIONAL WEATHER ROUNDUP
NATIONAL WEATHER SERVICE WAKEFIELD VA
1000 PM EDT SAT JUN 24 2017

Note: "fair" indicates few or no clouds below 12,000 feet with no
significant weather and/or obstructions to visibility. * = Denotes
station may not report precipitation (e.g., rain,snow,etc.),
thunder or fog.

VAZ042-051-052>054-056-250300-
NORTHERN VIRGINIA

CITY           SKY/WX    TMP DP  RH WIND       PRES   REMARKS
WASH NATIONAL  MOCLDY    81  59  47 SW3       29.95R
DULLES         MOCLDY    73  60  63 S5        29.96R
FORT BELVOIR   NOT AVBL
QUANTICO       PTCLDY    75  68  78 NW7       29.96R
FREDERICKSBRG* PTCLDY    73  64  73 CALM      29.95R
STAFFORD*      PTCLDY    67  66  97 CALM      30.00R
WARRENTON      PTCLDY    68  61  78 CALM      29.96R
CULPEPER*      CLEAR     69  65  87 CALM      29.98R
MANASSAS*      PTCLDY    69  65  86 SE5       29.96R
LEESBURG*      PTCLDY   N/A N/A N/A W3        29.98R
WINCHESTER     PTCLDY    72  54  53 W5        29.98R
FRONT ROYAL*   CLEAR     70  57  64 SW3       29.97R
LURAY*         CLEAR     70  63  78 CALM      29.99R
$$

VAZ048-049-060>072-079>083-250300-
CENTRAL AND SOUTH CENTRAL VIRGINIA

CITY           SKY/WX    TMP DP  RH WIND       PRES   REMARKS
RICHMOND       CLOUDY    80  70  71 CALM      29.96R
CHESTERFIELD*  FAIR      77  72  84 CALM      29.97R
PETERSBURG*    CLOUDY    73  72  96 CALM      29.97R
HANOVER        MOCLDY    73  66  78 CALM      29.97R
TAPPAHANNOCK*  MOCLDY    73  73  98 CALM      29.97R
QUINTON*       FAIR      77  76  96 CALM      29.95R
CHARLOTTSVILLE CLOUDY    74  66  76 VRB3      29.99R
GORDONSVILLE*  CLOUDY    72  66  82 CALM      29.97R
ORANGE*        MOCLDY    68  64  88 CALM      29.97R
LOUISA*        PTCLDY    72  70  94 CALM      29.96R
BUMPASS*       FAIR      72  70  95 CALM      29.97R
FARMVILLE*     MOCLDY    76  69  80 CALM      29.97R
CREWE*         FAIR      74  69  87 CALM      29.97R
FORT PICKETT*  FAIR     N/A N/A N/A S10       29.98R
CHASE CITY*    FAIR      74  73  99 CALM      29.99R
CLARKSVILLE*   MOCLDY    73  73 100 S9        29.99R
SOUTH HILL*    PTCLDY    74  74 100 S5        30.04R
LAWRENCEVILLE* FAIR      74  73  96 CALM      29.98R
EMPORIA*       MOCLDY    75  72  88 SE3       29.98R
$$

VAZ088>098-250300-
SOUTHEAST VIRGINIA

CITY           SKY/WX    TMP DP  RH WIND       PRES   REMARKS
NORFOLK        LGT RAIN  80  74  81 CALM      29.95R
VIRGINIA BEACH LGT RAIN  77  71  82 E3        29.95R
NORFOLK NAVAL  CLOUDY    78  50  37 S5        29.97R
WEST POINT*    CLOUDY    78  71  79 CALM      29.96R
SALUDA*        FAIR      79  75  86 N3        29.94R
NEWPORT NEWS   CLOUDY    81  71  71 W6        29.95R
LANGLEY AFB    NOT AVBL
FORT EUSTIS    NOT AVBL
WILLIAMSBURG*  CLOUDY    82  73  74 CALM      29.96R
HR EXEC AP*    CLOUDY    75  72  88 CALM      29.95R
FRANKLIN*      LGT RAIN  75  72  88 CALM      29.97R
US460-WAKEFLD  CLOUDY    76  75  97 CALM      29.96R
$$

VAZ020-022-025-037-045-250300-
WEST CENTRAL AND SOUTHWEST VIRGINIA

CITY           SKY/WX    TMP DP  RH WIND       PRES   REMARKS
STAUNTON*      CLEAR     67  56  69 CALM      30.04R
WAYNESBORO*    PTCLDY    68  58  71 SW3       30.04R
HOT SPRINGS VA CLEAR     63  45  51 W6        30.16R
LYNCHBURG      CLEAR     73  61  65 CALM      30.02R
DANVILLE       PTCLDY    73  73 100 CALM      30.00R
SOUTH BOSTON*  FAIR      74  73  95 SW3       29.99R
MARTINSVILLE   PTCLDY    71  66  84 N6        30.04R
ROANOKE        CLEAR     72  57  59 NW8       30.06R
BLACKSBURG     CLEAR     66  57  72 CALM      30.12R
DUBLIN*        CLEAR     70  52  53 NW3       30.10R
MARION*        PTCLDY    67  56  67 CALM      30.15R
HILLSVILLE*    CLEAR     69  52  55 CALM      30.11R
RICHLANDS*     FAIR      67  57  68 CALM      30.14R
WISE*          MOCLDY    68  55  64 CALM      30.15R
ABINGDON*      CLEAR     71  58  63 CALM      30.10R
$$

MDZ021>025-VAZ099-100-250300-
SOUTHERN MARYLAND AND THE DELMARVA PENINSULA

CITY           SKY/WX    TMP DP  RH WIND       PRES   REMARKS
PATUXENT RIVER PTCLDY    76  63  64 S3        29.95R
BAY BRIDGE APT PTCLDY    75  64  69 S3        29.94R
LEONARDTOWN    PTCLDY    70  63  78 CALM      29.97R
DOVER          NOT AVBL
GEORGETOWN     MOCLDY    74  65  73 CALM      29.95R
EASTON         MOCLDY    75  63  66 CALM      29.98R
CAMBRIDGE      CLEAR     72  66  83 CALM      29.95R
SALISBURY      MOCLDY    74  68  81 CALM      29.96R
OCEAN CITY     CLOUDY    78  72  81 SW5       29.96R
WALLOPS ISLAND CLOUDY    74  71  91 CALM      29.96R
ACCOMACK*      CLOUDY    78  71  77 S6        29.95R
$$

NCZ012>017-030>032-250300-
NORTH CENTRAL AND EASTERN NORTH CAROLINA

CITY           SKY/WX    TMP DP  RH WIND       PRES   REMARKS
ROANOKE RAPIDS FAIR      72  72 100 CALM      29.98R
RALEIGH        LGT RAIN  72  72 100 CALM      30.01R
ELIZABETH CITY HVY RAIN  78  78 100 S12       29.97R FOG
AHOSKIE*       HVY RAIN  71  71  98 CALM      29.99R
EDENTON*       HVY RAIN  73  71  94 CALM      30.02R
CURRITUCK*     LGT RAIN  80  79  99 S3        29.98R
KILL DEVIL HLS RAIN      77  77  99 S3        29.96S
MANTEO         RAIN      77  74  90 SW8       29.98R
CAPE HATTERAS  CLOUDY    80  75  84 SW13G21   30.00R
TARBORO*       NOT AVBL
GOLDSBORO      NOT AVBL
WASHINGTON     RAIN     N/A N/A N/A SW3       29.99F
GREENVILLE     LGT RAIN  75  73  94 CALM      30.01F
NEW BERN       LGT RAIN  74  74 100 SW5       30.01R
WILMINGTON     CLOUDY    79  72  79 E3        30.00R
$$

VAZ048-250300-
ELSEWHERE

CITY           SKY/WX    TMP DP  RH WIND       PRES   REMARKS
HARRISBURG PA  CLOUDY    78  62  57 SW14G20   29.91R
BALTIMORE      MOCLDY    73  62  68 CALM      29.94R
ANNAPOLIS      PTCLDY    74  67  78 CALM      29.94R
ANDREWS AFB    NOT AVBL
PHILADELPHIA   PTCLDY    78  60  53 SW7       29.92R
HENDERSON NC   CLOUDY    69  67  94 SW6       30.01R
GREENSBORO     MOCLDY    72  72 100 SW6       30.00R
ROCKY MOUNT    LGT RAIN  71  70  96 SE3       29.99R
$$

VAZ100-250300-
MARINE

STATION/POSITION TIME  TEMP    WIND        PRES    WAVE   SWELL
                       AIR SEA DIR/SP/G            HT/PER HT/PER
                 (UTC) (F)     (DEG/KT/KT) (MB)    (FT/S) (FT/S)
BRANDYWINE LGT   0148          240/ 10/ 11 1014.0R
CAPE MAY NJ      0136   74 72  230/  7/  8 1013.2R
LEWES DE         0136   79 72  230/  4/  5 1013.6R
15NM E FENWICK I 0150   71 68  210/  8/ 10 1014.6R   3/ 8   3/ 8
WACHAPREAGUE VA  0136   79 81  190/  7/  8 1013.8R
THOMAS POINT MD  0200   80 78  240/  6/  7   N/A
GOOSES REEF MD   0200   81 79  250/  2/  4 1014.9    1
COVE POINT MD    0136   81     290/  3/  3 1014.5R
SOLOMONS ISLAND  0136   78 76     CALM       N/A
BISHOPS HEAD MD  0136   83 85   CALM  /  1 1014.4R
PINEY POINT MD   0148          110/  4/  4   N/A
POTOMAC MD       0200   80 79  310/  2/  2 1013.3    0
CAMBRIDGE MD     0136   78 82              1014.6R
LEWISETTA VA     0136   80 81  140/  4/  5 1014.0R
RAPPAHANNOCK LGT 0148          150/  7/  7 1014.6R
STINGRAY PT      0150   82     240/  2/  2 1014.1R
YORK RVR RNG VA  0136   81     210/  5/  5 1014.1R
YORKTOWN VA      0136   81 78  210/  6/  7 1013.6R
JAMESTOWN VA     0200   81 83  200/  6/  8   N/A     0
DOMINION TERM VA 0136   80     250/  5/  6 1014.3R
KIPTOPEKE VA     0136      80  150/  5/  6   N/A
CHES BAY BRIDGE  0136   81 76  260/  9/  9 1014.1R
CAPE HENRY VA    0136   77     150/  3/  6   N/A
WILLOUBY STN VA  0136   80     230/  9/  9 1014.0R
S CRANEY ISL VA  0136   80     240/  3/  4 1013.9R
CAPE HENRY BUOY  0130      73                N/A     3/ 8
1ST LANDING BUOY 0200   78 74              1014.1    1/ 3
CAPE CHARLES BUO 0151      71                N/A     2/ 9
64NM E OF VA BCH 0150   74 73  220/  8/ 10 1014.6R   4/ 7   3/ 7
DUCK PIER NC     0136   79 62  200/ 13/ 16 1014.2R
44100 DUCK FRF   0105      72                N/A     3/ 5
OREGON INLET NC  0148          220/ 10/ 11 1015.2R
HATTERAS NC      0136   78 79  220/ 13/ 18 1015.5R
DIAMOND SHLS NC  0150   81 80  220/ 19/ 23 1015.6R   6/ 6   2/ 9
CAPE LOOKOUT NC  0100   80     210/ 14/ 17 1015.3R
$$




USA.gov is the U.S. government's official web portal to all federal, state and local government web resources and services.